Cape Express — HO5337 — position and weather

sailwx.info

Track history (hours):
 
Tides and Currents Weather Stations Pressure Air Temp Water Temp Dewpoint Dewpoint Depression Visibility Wind Speed Wind Dir Waves Ship Positions

Cape Express

Last reported at 2014-Oct-24 23:21 UTC. Time now 2014-Oct-25 02:59 UTC.
Position N 25°52' W 079°28'.

Length 29 m; draft 2.2 m.

Type: Cargo ship. MMSI: 370269000.

Date/timePositionNaut miles runAvg speedWind from/ knotsBaromVisibWave heightAir tempDewpointWater temp
2014-Oct-24 23:21N 25°52' W 079°28'5 6.5
2014-Oct-24 22:33N 25°53' W 079°33'6 6.2
2014-Oct-24 21:33N 25°55' W 079°39'6 5.6
2014-Oct-24 20:33N 25°58' W 079°45'6 5.9
2014-Oct-24 19:33N 26°01' W 079°51'6 5.7
2014-Oct-24 18:33N 26°03' W 079°56'6 5.6
2014-Oct-24 17:33N 26°05' W 080°02'5 4.5
2014-Oct-24 16:32N 26°04' W 080°07'1 0.6
2014-Oct-24 15:33N 26°04' W 080°08'0 0.0
2014-Oct-24 14:33N 26°04' W 080°08'0 0.0
2014-Oct-24 13:33N 26°04' W 080°08'0 0.0
2014-Oct-24 12:33N 26°04' W 080°08'0 0.1
2014-Oct-24 11:33N 26°04' W 080°08'5 4.9
2014-Oct-24 10:33N 26°05' W 080°03'10 9.6
2014-Oct-24 09:33N 25°60' W 079°53'1110.8
2014-Oct-24 08:33N 25°54' W 079°43'9 0.4
2014-Oct-23 08:16N 25°47' W 079°36'6 8.4
2014-Oct-23 07:33N 25°50' W 079°42'8 7.6
2014-Oct-23 06:33N 25°54' W 079°49'7 6.7
2014-Oct-23 05:33N 25°59' W 079°55'7 6.7
2014-Oct-23 04:33N 26°03' W 080°01'5 5.4
2014-Oct-23 03:33N 26°04' W 080°07'1 0.9
2014-Oct-23 02:33N 26°04' W 080°08'0 0.0
2014-Oct-23 01:33N 26°04' W 080°08'0 0.0
2014-Oct-23 00:33N 26°04' W 080°08'0 0.0
2014-Oct-22 23:33N 26°04' W 080°08'0 0.1
2014-Oct-22 22:33N 26°04' W 080°08'2 2.5
2014-Oct-22 21:33N 26°05' W 080°05'6 6.1
2014-Oct-22 20:33N 26°04' W 079°59'1111.0
2014-Oct-22 19:33N 25°59' W 079°48'1111.1
2014-Oct-22 18:33N 25°56' W 079°36'  
2014-Oct-19 06:33N 26°04' W 079°31'10 9.6
2014-Oct-19 05:33N 26°04' W 079°41'9 9.0
2014-Oct-19 04:33N 26°05' W 079°51'9 9.3
2014-Oct-19 03:33N 26°05' W 080°02'5 5.0
2014-Oct-19 02:33N 26°04' W 080°07'1 0.9
2014-Oct-19 01:33N 26°04' W 080°08'0 0.0
2014-Oct-19 00:33N 26°04' W 080°08'0 0.0
2014-Oct-18 23:33N 26°04' W 080°08'0 0.0
2014-Oct-18 22:33N 26°04' W 080°08'0 0.0
2014-Oct-18 21:33N 26°04' W 080°08'0 0.0
2014-Oct-18 20:33N 26°04' W 080°08'2 1.7
2014-Oct-18 19:33N 26°05' W 080°07'9 9.3
2014-Oct-18 18:33N 26°01' W 079°57'1110.9
2014-Oct-18 17:33N 25°56' W 079°47'1211.0
2014-Oct-18 16:29N 25°51' W 079°35'1 0.0
2014-Oct-17 22:33N 25°51' W 079°34'9 9.0
2014-Oct-17 21:33N 25°54' W 079°43'8 8.4
2014-Oct-17 20:33N 25°57' W 079°52'9 8.6
2014-Oct-17 19:33N 26°02' W 079°60'7 6.5
2014-Oct-17 18:33N 26°04' W 080°07'1 1.1
2014-Oct-17 17:33N 26°04' W 080°08'0 0.0
2014-Oct-17 16:33N 26°04' W 080°08'0 0.0
2014-Oct-17 15:33N 26°04' W 080°08'0 0.0
2014-Oct-17 14:33N 26°04' W 080°08'0 0.0
2014-Oct-17 13:33N 26°04' W 080°08'0 0.1
2014-Oct-17 12:33N 26°04' W 080°08'5 5.5
2014-Oct-17 11:33N 26°05' W 080°02'9 9.0
2014-Oct-17 10:33N 26°02' W 079°52'9 8.8
2014-Oct-17 09:33N 25°59' W 079°43'9 8.7
2014-Oct-17 08:32N 25°57' W 079°33'4 0.1
2014-Oct-15 06:33N 25°56' W 079°29'9 9.0
2014-Oct-15 05:33N 25°58' W 079°39'8 8.2
2014-Oct-15 04:33N 26°01' W 079°47'8 7.9
2014-Oct-15 03:33N 26°03' W 079°56'8 8.3
2014-Oct-15 02:33N 26°05' W 080°05'3 3.2
2014-Oct-15 01:33N 26°04' W 080°08'0 0.0
2014-Oct-15 00:33N 26°04' W 080°08'0 0.0
2014-Oct-14 23:33N 26°04' W 080°08'  
Track history (hours):
 
Tides and Currents Weather Stations Pressure Air Temp Water Temp Dewpoint Dewpoint Depression Visibility Wind Speed Wind Dir Waves Ship Positions

Cape Express

Last reported at 2014-Oct-24 23:21 UTC. Time now 2014-Oct-25 02:59 UTC.
Position N 25°52' W 079°28'.

Length 29 m; draft 2.2 m.

Type: Cargo ship. MMSI: 370269000.

Date/timePositionNaut miles runAvg speedWind from/ knotsBaromVisibWave heightAir tempDewpointWater temp
2014-Oct-24 23:21N 25°52' W 079°28'5 6.5
2014-Oct-24 22:33N 25°53' W 079°33'6 6.2
2014-Oct-24 21:33N 25°55' W 079°39'6 5.6
2014-Oct-24 20:33N 25°58' W 079°45'6 5.9
2014-Oct-24 19:33N 26°01' W 079°51'6 5.7
2014-Oct-24 18:33N 26°03' W 079°56'6 5.6
2014-Oct-24 17:33N 26°05' W 080°02'5 4.5
2014-Oct-24 16:32N 26°04' W 080°07'1 0.6
2014-Oct-24 15:33N 26°04' W 080°08'0 0.0
2014-Oct-24 14:33N 26°04' W 080°08'0 0.0
2014-Oct-24 13:33N 26°04' W 080°08'0 0.0
2014-Oct-24 12:33N 26°04' W 080°08'0 0.1
2014-Oct-24 11:33N 26°04' W 080°08'5 4.9
2014-Oct-24 10:33N 26°05' W 080°03'10 9.6
2014-Oct-24 09:33N 25°60' W 079°53'1110.8
2014-Oct-24 08:33N 25°54' W 079°43'9 0.4
2014-Oct-23 08:16N 25°47' W 079°36'6 8.4
2014-Oct-23 07:33N 25°50' W 079°42'8 7.6
2014-Oct-23 06:33N 25°54' W 079°49'7 6.7
2014-Oct-23 05:33N 25°59' W 079°55'7 6.7
2014-Oct-23 04:33N 26°03' W 080°01'5 5.4
2014-Oct-23 03:33N 26°04' W 080°07'1 0.9
2014-Oct-23 02:33N 26°04' W 080°08'0 0.0
2014-Oct-23 01:33N 26°04' W 080°08'0 0.0
2014-Oct-23 00:33N 26°04' W 080°08'0 0.0
2014-Oct-22 23:33N 26°04' W 080°08'0 0.1
2014-Oct-22 22:33N 26°04' W 080°08'2 2.5
2014-Oct-22 21:33N 26°05' W 080°05'6 6.1
2014-Oct-22 20:33N 26°04' W 079°59'1111.0
2014-Oct-22 19:33N 25°59' W 079°48'1111.1
2014-Oct-22 18:33N 25°56' W 079°36'  
2014-Oct-19 06:33N 26°04' W 079°31'10 9.6
2014-Oct-19 05:33N 26°04' W 079°41'9 9.0
2014-Oct-19 04:33N 26°05' W 079°51'9 9.3
2014-Oct-19 03:33N 26°05' W 080°02'5 5.0
2014-Oct-19 02:33N 26°04' W 080°07'1 0.9
2014-Oct-19 01:33N 26°04' W 080°08'0 0.0
2014-Oct-19 00:33N 26°04' W 080°08'0 0.0
2014-Oct-18 23:33N 26°04' W 080°08'0 0.0
2014-Oct-18 22:33N 26°04' W 080°08'0 0.0
2014-Oct-18 21:33N 26°04' W 080°08'0 0.0
2014-Oct-18 20:33N 26°04' W 080°08'2 1.7
2014-Oct-18 19:33N 26°05' W 080°07'9 9.3
2014-Oct-18 18:33N 26°01' W 079°57'1110.9
2014-Oct-18 17:33N 25°56' W 079°47'1211.0
2014-Oct-18 16:29N 25°51' W 079°35'1 0.0
2014-Oct-17 22:33N 25°51' W 079°34'9 9.0
2014-Oct-17 21:33N 25°54' W 079°43'8 8.4
2014-Oct-17 20:33N 25°57' W 079°52'9 8.6
2014-Oct-17 19:33N 26°02' W 079°60'7 6.5
2014-Oct-17 18:33N 26°04' W 080°07'1 1.1
2014-Oct-17 17:33N 26°04' W 080°08'0 0.0
2014-Oct-17 16:33N 26°04' W 080°08'0 0.0
2014-Oct-17 15:33N 26°04' W 080°08'0 0.0
2014-Oct-17 14:33N 26°04' W 080°08'0 0.0
2014-Oct-17 13:33N 26°04' W 080°08'0 0.1
2014-Oct-17 12:33N 26°04' W 080°08'5 5.5
2014-Oct-17 11:33N 26°05' W 080°02'9 9.0
2014-Oct-17 10:33N 26°02' W 079°52'9 8.8
2014-Oct-17 09:33N 25°59' W 079°43'9 8.7
2014-Oct-17 08:32N 25°57' W 079°33'4 0.1
2014-Oct-15 06:33N 25°56' W 079°29'9 9.0
2014-Oct-15 05:33N 25°58' W 079°39'8 8.2
2014-Oct-15 04:33N 26°01' W 079°47'8 7.9
2014-Oct-15 03:33N 26°03' W 079°56'8 8.3
2014-Oct-15 02:33N 26°05' W 080°05'3 3.2
2014-Oct-15 01:33N 26°04' W 080°08'0 0.0
2014-Oct-15 00:33N 26°04' W 080°08'0 0.0
2014-Oct-14 23:33N 26°04' W 080°08'  

Dump ship's entire track history